Marrakech, Morocco

6:50 PM WEST on September 26, 2016 (GMT +0100)
Menara

Weather History for GMMX - December, 2013

Change the Weather History Date:

Tuesday, December 31, 2013

  Actual Average Record
Temperature  
Mean Temperature 51 °F -  
Max Temperature 67 °F 63 °F 73 °F (2015)
Min Temperature 35 °F 43 °F 35 °F (2011)
Degree Days  
Heating Degree Days 14    
Growing Degree Days 1 (Base 50)    
Moisture  
Dew Point 35 °F    
Average Humidity 57    
Maximum Humidity 93    
Minimum Humidity 17    
Precipitation  
Precipitation 0.00 in - - ()
Sea Level Pressure  
Sea Level Pressure 30.26 in    
Wind  
Wind Speed 3 mph ()    
Max Wind Speed 9 mph    
Max Gust Speed -    
Visibility 5.3 miles    
Events      
Averages and records for this station are not official NWS values.
T = Trace of Precipitation, MM = Missing Value Source: Averaged Metar Reports

Daily Weather History Graph

Daily Weather History Graph

Search for Another Location

Airport or City:

Trip Planner

Search our weather history database for the weather conditions in past years. The results will help you decide how hot, cold, wet, or windy it might be!

Date:

Astronomy

Dec. 31, 2013 Rise Set
Actual Time 7:31 AM WET 5:39 PM WET
Civil Twilight 7:04 AM WET 6:05 PM WET
Nautical Twilight 6:34 AM WET 6:36 PM WET
Astronomical Twilight 6:04 AM WET 7:05 PM WET
Moon 6:13 AM WET (12/31) 4:57 PM WET (12/31)
Length of Visible Light 11h 01m
Length of Day
10h 07m
Waning Crescent, 1% of the Moon is Illuminated
Dec 31
Waning Crescent
Jan 1
New
Jan 8
First Quarter
Jan 16
Full
Jan 24
Last Quarter

Hourly Weather History & Observations

Time (WET) Temp. Windchill Dew Point Humidity Pressure Visibility Wind Dir Wind Speed Gust Speed Precip Events Conditions
12:00 AM 44 °F - 36 °F 65% 30.32 in 6 mi East 2.3 mph - -   Clear
12:00 AM 42.8 °F - 35.6 °F 76% 30.27 in - Variable 1.2 mph - N/A   Clear
12:30 AM 42.8 °F - 35.6 °F 76% 30.27 in - SE 2.3 mph - N/A   Clear
1:00 AM 41.0 °F 39.0 °F 35.6 °F 81% 30.27 in 5.0 mi ESE 3.5 mph - N/A   Unknown
1:30 AM 42.8 °F 40.1 °F 35.6 °F 76% 30.27 in - SSE 4.6 mph - N/A   Clear
2:00 AM 44.6 °F - 33.8 °F 66% 30.27 in - Variable 2.3 mph - N/A   Clear
2:30 AM 42.8 °F - 33.8 °F 70% 30.24 in - Variable 2.3 mph - N/A   Clear
3:00 AM 39 °F - 34 °F 77% 30.31 in 6 mi East 3.5 mph - -  
3:00 AM 39.2 °F 37.0 °F 33.8 °F 81% 30.24 in - ENE 3.5 mph - N/A   Clear
3:30 AM 39.2 °F 35.0 °F 35.6 °F 87% 30.24 in - East 5.8 mph - N/A   Clear
4:00 AM 39.2 °F 35.9 °F 35.6 °F 87% 30.24 in - East 4.6 mph - N/A   Clear
4:30 AM 41.0 °F 37.1 °F 33.8 °F 76% 30.24 in - ESE 5.8 mph - N/A   Clear
5:00 AM 37.4 °F 32.8 °F 33.8 °F 87% 30.21 in - East 5.8 mph - N/A   Clear
5:30 AM 37.4 °F 34.9 °F 33.8 °F 87% 30.24 in - East 3.5 mph - N/A   Clear
5:45 AM 36 °F - 33 °F 84% 30.30 in 6 mi East 4.6 mph - -  
6:00 AM 35.6 °F 31.7 °F 33.8 °F 93% 30.21 in - East 4.6 mph - N/A   Clear
6:30 AM 35.6 °F - 33.8 °F 93% 30.24 in - ESE 2.3 mph - N/A   Clear
7:00 AM 35.6 °F - 33.8 °F 93% 30.24 in - East 2.3 mph - N/A   Clear
7:30 AM 37.4 °F - 32.0 °F 81% 30.27 in 6.2 mi ENE 2.3 mph - N/A   Partly Cloudy
8:00 AM 37.4 °F 34.9 °F 33.8 °F 87% 30.27 in 6.2 mi SE 3.5 mph - N/A   Partly Cloudy
8:30 AM 42.8 °F - 32.0 °F 66% 30.27 in 6.2 mi Variable 2.3 mph - N/A   Scattered Clouds
9:00 AM 46 °F - 34 °F 51% 30.33 in 6 mi ESE 1.2 mph - -   Clear
9:00 AM 44.6 °F - 35.6 °F 71% 30.27 in 6.2 mi Variable 1.2 mph - N/A   Scattered Clouds
9:30 AM 51.8 °F - 30.2 °F 44% 30.30 in 6.2 mi Variable 1.2 mph - N/A   Scattered Clouds
10:00 AM 53.6 °F - 33.8 °F 47% 30.30 in 6.2 mi Calm Calm - N/A   Scattered Clouds
10:30 AM 59.0 °F - 32.0 °F 36% 30.30 in 6.2 mi Variable 1.2 mph - N/A   Scattered Clouds
11:00 AM 60.8 °F - 33.8 °F 36% 30.30 in 5.0 mi Variable 2.3 mph - N/A   Unknown
11:30 AM 62.6 °F - 33.8 °F 34% 30.30 in 5.0 mi WNW 4.6 mph - N/A   Unknown
12:00 PM 61 °F - 37 °F 30% 30.28 in 4 mi NNW 5.8 mph - -   Clear
12:00 PM 60.8 °F - 37.4 °F 42% 30.30 in 3.7 mi NNW 4.6 mph - N/A   Unknown
12:30 PM 62.6 °F - 37.4 °F 39% 30.27 in 3.7 mi NNW 4.6 mph - N/A   Unknown
1:00 PM 64.4 °F - 32.0 °F 30% 30.27 in 3.7 mi NW 5.8 mph - N/A   Unknown
1:30 PM 64.4 °F - 32.0 °F 30% 30.27 in 3.7 mi West 5.8 mph - N/A   Unknown
2:00 PM 66.2 °F - 32.0 °F 28% 30.24 in - West 8.1 mph - N/A   Clear
2:30 PM 66.2 °F - 33.8 °F 30% 30.24 in - WNW 9.2 mph - N/A   Clear
3:00 PM 67 °F - 33 °F 17% 30.21 in 6 mi West 9.2 mph - -   Clear
3:00 PM 66.2 °F - 32.0 °F 28% 30.24 in - WNW 9.2 mph - N/A   Clear
3:30 PM 66.2 °F - 33.8 °F 30% 30.24 in - NW 9.2 mph - N/A   Clear
4:00 PM 66.2 °F - 33.8 °F 30% 30.24 in - WNW 9.2 mph - N/A   Clear
4:30 PM 66.2 °F - 35.6 °F 32% 30.24 in - WNW 9.2 mph - N/A   Clear
5:00 PM 64.4 °F - 35.6 °F 34% 30.24 in - West 8.1 mph - N/A   Clear
5:30 PM 62.6 °F - 35.6 °F 37% 30.24 in 6.2 mi West 4.6 mph - N/A   Scattered Clouds
6:00 PM 61 °F - 34 °F 25% 30.22 in 6 mi SW 4.6 mph - -   Partly Cloudy
6:00 PM 60.8 °F - 35.6 °F 39% 30.24 in 6.2 mi SW 3.5 mph - N/A   Scattered Clouds
6:30 PM 59.0 °F - 35.6 °F 42% 30.24 in 6.2 mi SW 3.5 mph - N/A   Scattered Clouds
7:00 PM 57.2 °F - 35.6 °F 44% 30.24 in 6.2 mi SW 4.6 mph - N/A   Partly Cloudy
7:30 PM 55.4 °F - 35.6 °F 47% 30.24 in 6.2 mi SSW 1.2 mph - N/A   Partly Cloudy
8:00 PM 51.8 °F - 37.4 °F 58% 30.24 in 5.0 mi Calm Calm - N/A   Partly Cloudy
8:30 PM 51.8 °F - 37.4 °F 58% 30.27 in 3.7 mi NW 1.2 mph - N/A   Partly Cloudy
9:00 PM 50 °F - 37 °F 50% 30.30 in 3 mi NE 1.2 mph - -   Scattered Clouds
9:00 PM 50.0 °F - 37.4 °F 62% 30.27 in 3.1 mi Variable 2.3 mph - N/A   Partly Cloudy
9:30 PM 50.0 °F - 37.4 °F 62% 30.27 in 4.3 mi SE 2.3 mph - N/A   Partly Cloudy
10:00 PM 50.0 °F - 37.4 °F 62% 30.27 in 5.0 mi SSE 5.8 mph - N/A   Unknown
10:30 PM 51.8 °F - 37.4 °F 58% 30.27 in 5.0 mi SSE 6.9 mph - N/A   Unknown
11:00 PM 50.0 °F - 37.4 °F 62% 30.27 in - SSE 5.8 mph - N/A   Clear
11:30 PM 50.0 °F - 35.6 °F 58% 30.27 in - Calm Calm - N/A   Clear